Temp
2 2 2 2 2 2 2 2 2 2 2 2 2 2 2 2 2 2 2 2 2 2 2 2 3 3 3 3 3 3 3 3 3 3 3 3 3 3 3 3 3 4 4 4 4 4 4 4 4 5 5 4 5 5 5 5 5 5 5 5 5 5 5 5 6 6 7 7 7 7 8 8 8 8 8 8 9 9 9 9 9 9 9 9 9 9
2 2 2 2 2 2 2 2 2 2 2 2 2 2 2 2 2 2 2 2 2 2 2 2 3 3 3 3 3 3 3 3 3 3 3 3 3 3 3 3 3 3 4 4 4 4 4 4 4 4 4 4 4 5 5 5 5 5 5 5 5 5 5 5 5 5 6 6 7 7 7 8 8 8 8 8 8 8 8 8 8 9 9 9 9 9
2 2 2 2 2 2 2 2 2 2 2 2 1 1 1 1 1 1 2 2 2 2 2 2 3 3 3 2 2 2 2 2 2 3 3 3 3 3 3 3 3 4 4 4 4 4 4 4 4 3 3 4 4 5 5 5 5 5 5 5 5 5 4 4 4 4 5 5 6 7 7 7 8 8 8 8 8 8 8 8 8 8 8 9 9 9
1 2 2 2 2 2 2 2 1 1 1 1 1 1 1 1 1 2 2 2 2 2 2 2 2 2 2 2 2 2 2 2 2 2 3 3 3 3 3 3 3 4 4 4 4 4 4 4 4 4 4 4 4 4 5 5 5 5 5 5 4 4 4 4 4 4 4 5 5 6 6 7 7 7 7 7 7 7 8 8 8 8 8 8 9 9
1 1 1 1 1 1 1 1 1 1 1 1 1 1 1 1 2 2 2 1 1 1 1 2 2 2 2 2 2 2 2 2 2 2 3 3 3 3 3 3 3 3 3 3 3 4 4 4 4 4 4 4 4 4 4 4 4 4 4 4 4 4 4 4 4 4 4 4 4 5 5 6 6 7 7 7 7 7 7 7 8 8 8 8 8 8
1 1 1 1 1 1 1 1 1 1 1 1 1 1 1 2 1 1 1 1 1 1 1 1 1 1 1 2 2 2 2 2 2 2 2 2 2 2 2 3 3 3 3 3 3 3 3 4 4 4 4 4 4 4 4 4 3 3 3 3 3 3 3 3 3 4 4 4 4 5 5 5 6 6 6 7 7 7 7 7 7 7 7 7 8 8
1 1 1 0 0 1 1 1 1 1 1 1 1 1 1 1 1 0 -0 0 0 1 1 1 1 1 2 2 2 2 2 2 2 2 2 2 2 2 2 2 2 2 3 3 3 3 3 3 3 3 4 4 4 4 3 3 2 2 3 3 3 3 3 3 3 4 4 4 5 5 5 5 5 6 6 6 7 7 7 7 7 7 7 7 7 8
1 0 -0 -0 0 1 1 1 1 1 1 1 1 1 0 0 -0 -0 -0 0 0 1 1 1 1 2 2 2 2 2 2 2 1 1 1 1 1 2 2 2 2 2 2 2 3 3 3 3 3 3 3 3 3 3 3 2 2 2 2 3 3 3 3 3 3 4 4 4 5 5 5 5 5 5 6 6 6 6 7 7 7 7 7 7 7 7
-0 -0 -0 0 1 1 1 1 1 1 1 1 0 -0 -1 -1 -0 -0 0 1 1 1 1 2 2 2 2 2 2 1 1 1 1 1 1 1 1 1 2 2 2 2 2 2 2 2 3 3 3 3 3 3 3 3 3 2 2 2 3 3 4 4 4 4 4 4 4 5 5 5 5 5 5 5 5 6 6 6 6 7 7 7 7 7 7 7
-1 -1 -0 0 1 1 1 1 1 1 0 -0 -1 -1 -1 -1 -0 0 1 1 1 1 1 1 1 1 1 1 1 1 1 1 1 1 1 1 1 1 1 1 1 1 1 2 2 2 2 2 2 3 3 3 3 3 3 3 3 3 4 4 4 4 4 4 4 4 4 5 4 4 4 5 5 5 6 6 6 6 6 7 7 7 7 7 7 7
-1 -0 0 1 1 1 1 1 0 -0 -1 -1 -1 -1 -0 -0 0 1 1 1 1 1 1 1 1 1 1 1 1 1 0 0 0 0 1 1 1 1 1 1 1 1 1 1 2 2 2 2 2 2 2 2 2 2 3 3 3 4 4 4 4 4 4 4 4 4 4 4 4 4 4 4 5 5 6 6 6 6 6 6 6 6 7 7 7 7
-0 0 1 1 1 1 0 -0 -1 -1 -1 -1 -0 0 1 1 1 1 0 0 0 1 1 1 1 1 1 1 0 0 -0 -0 -0 0 0 0 0 1 1 1 1 1 1 1 1 1 1 1 2 2 2 2 2 2 3 3 3 3 3 3 3 3 3 4 4 4 4 4 4 4 4 4 4 5 5 6 6 6 6 6 6 6 7 7 7 7
0 1 1 1 0 -0 -1 -1 -1 -0 -0 0 0 0 1 0 0 0 -0 -0 -0 0 0 0 0 0 0 0 -0 -1 -1 -0 -0 0 0 0 0 0 0 0 0 0 1 1 1 1 1 1 1 1 1 1 2 2 2 3 3 3 3 3 3 3 3 4 4 4 4 4 3 3 3 3 4 4 4 4 5 5 5 5 6 6 6 7 7 7
1 1 1 0 -0 -1 -0 -0 -0 0 0 0 0 0 -0 -0 -0 -1 -1 -0 -0 -0 0 0 0 -0 -0 -0 -1 -1 -0 -0 0 0 0 0 0 0 0 0 0 0 0 0 0 0 0 0 1 1 1 1 1 2 2 2 3 3 3 3 3 3 3 4 4 3 3 3 3 3 3 3 3 4 4 4 4 4 4 4 5 5 6 6 7 7
0 0 -0 -1 -1 -0 0 0 0 0 -0 -0 -0 -1 -1 -1 -1 -1 -1 -1 -0 -0 -0 -0 -1 -1 -1 -0 -0 0 0 0 0 0 0 0 -0 -0 -0 -0 -0 -0 -0 -0 -0 -0 0 0 1 1 1 1 1 2 2 2 2 3 3 3 3 3 4 3 3 3 3 3 3 3 3 3 4 4 4 4 4 4 4 4 4 5 5 6 6 7
-0 -1 -1 -1 -0 -0 -0 -0 -0 -0 -1 -1 -1 -1 -1 -1 -1 -1 -1 -1 -1 -1 -1 -1 -1 -0 -0 0 0 1 0 0 -0 -0 -0 -0 -0 -0 -1 -1 -1 -1 -1 -0 -0 0 0 0 1 1 1 1 1 2 2 2 2 2 3 3 3 3 3 3 2 2 2 2 2 2 3 3 4 4 4 4 4 4 4 5 5 5 5 5 6 6
-1 -1 -1 -1 -1 -1 -1 -1 -1 -1 -1 -1 -1 -1 -1 -1 -1 -1 -1 -1 -1 -1 -1 -1 -1 -0 -0 0 0 0 0 -0 -0 -1 -1 -1 -1 -1 -1 -1 -1 -1 -1 -0 -0 0 0 0 1 1 1 1 1 1 1 2 2 3 3 3 3 3 3 3 2 2 3 3 3 3 3 3 3 4 4 4 4 4 4 5 5 5 5 5 5 6
-1 -1 -1 -1 -1 -1 -1 -1 -1 -1 -2 -2 -2 -2 -1 -1 -1 -1 -1 -1 -1 -1 -1 -1 -1 -1 -0 -0 -0 -0 -0 -1 -1 -1 -1 -1 -1 -1 -1 -1 -1 -1 -0 -0 0 0 0 1 1 1 1 1 0 1 1 2 2 2 2 2 3 3 3 3 3 3 3 3 3 3 3 3 3 3 3 3 3 3 4 4 4 5 5 5 5 5
-2 -2 -2 -2 -2 -2 -2 -2 -2 -2 -2 -2 -2 -2 -2 -1 -2 -2 -2 -2 -2 -2 -1 -1 -1 -1 -1 -1 -1 -1 -1 -1 -1 -1 -1 -1 -1 -1 -1 -1 -1 -0 -0 -0 0 0 1 0 0 0 0 0 1 1 1 2 2 2 2 2 2 2 2 2 2 2 2 3 3 3 3 3 3 3 3 3 3 3 3 3 4 4 5 5 5 5
-2 -2 -2 -2 -2 -2 -2 -2 -2 -2 -2 -2 -2 -2 -2 -2 -2 -2 -2 -2 -2 -2 -1 -1 -1 -1 -1 -1 -1 -1 -1 -2 -2 -2 -2 -1 -1 -1 -1 -1 -1 -1 -0 0 0 0 0 -0 -0 -0 -0 0 1 1 1 1 1 1 1 1 2 2 2 2 2 2 2 2 2 2 3 3 3 3 3 3 3 3 3 3 4 4 5 5 5 5
-2 -2 -2 -2 -2 -2 -2 -2 -2 -2 -2 -2 -2 -2 -2 -2 -2 -2 -2 -2 -2 -2 -2 -2 -1 -1 -1 -1 -2 -2 -2 -2 -2 -2 -2 -1 -1 -1 -1 -1 -1 -0 -0 0 -0 -0 -0 -1 -0 -0 0 0 1 1 1 1 1 1 1 1 1 1 1 2 2 2 2 2 2 2 2 2 2 3 3 3 3 3 3 4 4 4 4 5 5 5
-2 -2 -2 -2 -2 -2 -2 -2 -2 -2 -2 -2 -2 -2 -2 -2 -2 -3 -2 -2 -2 -2 -2 -2 -2 -2 -2 -2 -2 -2 -2 -2 -2 -2 -2 -1 -1 -1 -1 -0 -0 0 -0 -0 -1 -1 -1 -0 0 0 0 0 0 0 1 0 0 0 1 1 1 1 1 1 1 1 2 2 2 2 1 2 2 2 2 2 3 3 3 3 3 4 4 4 4 5
-2 -2 -2 -2 -2 -2 -2 -2 -3 -3 -3 -3 -3 -3 -3 -3 -3 -3 -3 -2 -2 -2 -2 -2 -2 -2 -2 -2 -2 -2 -2 -2 -2 -2 -2 -1 -1 -0 0 0 0 -0 -0 -1 -0 -0 0 0 1 0 0 0 0 0 0 0 0 0 0 0 1 1 1 1 1 1 1 1 1 1 1 1 1 1 1 1 2 2 2 3 3 3 3 3 4 4
-2 -2 -2 -2 -2 -2 -3 -3 -3 -3 -3 -3 -3 -3 -3 -3 -3 -3 -3 -2 -2 -2 -3 -3 -3 -2 -2 -2 -2 -2 -2 -2 -2 -2 -2 -1 -1 -0 -0 -0 -0 -1 -1 -0 -0 0 0 0 0 0 0 0 -0 -0 -0 -0 -0 -0 0 0 0 0 1 1 1 1 1 1 1 1 1 1 1 1 2 2 2 2 2 2 2 3 3 3 3 3
-2 -2 -2 -2 -3 -3 -3 -3 -3 -3 -2 -2 -2 -2 -2 -2 -2 -2 -2 -3 -3 -3 -3 -3 -3 -2 -2 -2 -2 -2 -1 -1 -1 -2 -2 -1 -1 -0 -0 -0 -1 -1 -1 -0 -0 -0 -0 -0 0 0 0 -0 -0 -1 -1 -1 -0 -0 -0 -0 0 0 0 1 1 1 1 1 1 1 1 1 1 1 1 2 2 2 2 2 2 2 3 3 3 3
-3 -3 -3 -3 -3 -3 -3 -3 -2 -2 -2 -2 -2 -2 -2 -2 -3 -3 -3 -3 -3 -3 -3 -3 -3 -2 -2 -2 -2 -2 -1 -1 -2 -2 -2 -1 -1 -1 -0 -1 -1 -1 -1 -0 -0 -0 -0 -0 -0 -0 -0 -0 -1 -1 -1 -1 -1 -1 -1 -0 -0 0 0 0 1 1 1 1 1 1 1 1 1 1 1 1 1 2 2 2 2 2 2 2 3 3
-3 -3 -3 -3 -3 -3 -3 -2 -2 -2 -2 -2 -3 -3 -3 -3 -3 -3 -3 -3 -3 -3 -3 -3 -3 -2 -2 -2 -2 -2 -2 -2 -2 -2 -2 -2 -1 -1 -1 -1 -1 -1 -1 -1 -1 -0 -0 -0 -0 -0 -1 -1 -1 -1 -1 -1 -1 -1 -1 -0 -0 -0 0 0 0 1 1 1 1 1 1 1 1 1 1 1 1 1 2 2 2 2 2 2 2 2
-4 -4 -4 -3 -3 -3 -3 -3 -3 -3 -3 -3 -3 -3 -3 -3 -3 -3 -3 -3 -3 -3 -3 -3 -3 -2 -2 -2 -2 -2 -2 -2 -2 -1 -2 -2 -2 -2 -1 -1 -1 -1 -1 -1 -1 -1 -1 -1 -1 -1 -1 -1 -1 -1 -1 -1 -1 -1 -1 -1 -0 -0 -0 0 0 0 0 0 0 0 0 0 0 1 1 1 1 1 1 1 1 1 1 2 2 2
-4 -4 -4 -3 -3 -3 -3 -3 -3 -3 -3 -3 -3 -3 -3 -3 -4 -4 -4 -3 -3 -3 -3 -3 -3 -2 -2 -2 -2 -2 -2 -2 -2 -2 -2 -2 -2 -2 -1 -1 -1 -1 -1 -1 -1 -1 -1 -0 -1 -1 -1 -1 -1 -1 -1 -1 -1 -1 -1 -1 -1 -1 -0 -0 -0 -0 -0 -0 -0 -0 -0 0 0 0 0 1 1 1 1 1 1 1 1 2 2 2
-4 -4 -4 -4 -4 -4 -4 -4 -4 -4 -4 -4 -3 -3 -3 -4 -4 -4 -4 -4 -4 -4 -3 -3 -3 -3 -2 -2 -2 -2 -2 -2 -2 -2 -2 -2 -2 -2 -2 -2 -2 -2 -2 -1 -1 -1 -0 -0 -0 -0 -1 -1 -1 -1 -2 -2 -2 -1 -1 -1 -1 -1 -1 -1 -0 -0 -0 -0 -0 -0 -0 -0 -0 0 0 0 0 1 1 1 1 1 2 2 2 2
-4 -4 -4 -4 -4 -4 -4 -4 -4 -4 -4 -4 -4 -4 -4 -4 -4 -4 -4 -4 -4 -4 -4 -3 -3 -3 -3 -3 -3 -2 -2 -2 -2 -2 -2 -2 -2 -2 -2 -2 -2 -2 -2 -2 -1 -1 -1 -0 -0 -0 -1 -1 -1 -1 -1 -1 -1 -1 -1 -1 -1 -1 -1 -1 -1 -1 -1 -1 -1 -1 -1 -0 -0 -0 0 0 0 1 1 1 2 2 2 2 2 2
-5 -4 -4 -4 -4 -4 -4 -4 -4 -4 -4 -4 -4 -4 -4 -4 -4 -4 -4 -4 -4 -4 -4 -4 -3 -3 -3 -3 -3 -3 -3 -2 -2 -2 -2 -3 -3 -2 -2 -2 -2 -2 -2 -2 -2 -2 -1 -1 -1 -1 -1 -1 -1 -1 -1 -1 -1 -1 -1 -1 -1 -1 -1 -1 -1 -1 -1 -1 -1 -1 -1 -1 -1 -0 -0 0 0 1 1 2 2 2 2 3 3 3
-5 -4 -4 -4 -4 -4 -4 -4 -4 -4 -4 -4 -4 -4 -4 -4 -4 -4 -4 -4 -4 -4 -4 -4 -4 -4 -4 -4 -3 -3 -3 -3 -3 -3 -3 -3 -3 -3 -2 -2 -2 -2 -2 -2 -2 -2 -2 -1 -1 -1 -1 -1 -1 -1 -1 -1 -1 -1 -1 -1 -1 -1 -1 -1 -2 -2 -2 -2 -2 -1 -1 -1 -1 -1 -0 0 1 1 1 2 2 2 3 3 4 4
-5 -5 -4 -4 -4 -4 -4 -4 -4 -4 -4 -4 -4 -4 -4 -4 -4 -4 -4 -4 -4 -4 -4 -4 -4 -4 -4 -4 -4 -3 -3 -3 -3 -3 -3 -3 -3 -3 -3 -3 -2 -2 -2 -2 -2 -2 -2 -2 -2 -1 -1 -1 -1 -1 -1 -1 -1 -1 -1 -1 -2 -2 -2 -2 -2 -2 -2 -2 -2 -2 -2 -1 -1 -1 -0 0 1 1 1 1 2 3 4 5 5 4
-5 -5 -5 -4 -4 -4 -4 -4 -4 -4 -4 -4 -4 -4 -4 -4 -4 -4 -4 -4 -4 -4 -4 -4 -4 -4 -4 -4 -4 -4 -3 -3 -3 -3 -3 -3 -3 -3 -3 -3 -3 -2 -2 -2 -2 -2 -2 -2 -1 -1 -1 -1 -1 -1 -1 -1 -1 -1 -2 -2 -2 -2 -2 -2 -2 -3 -2 -2 -2 -2 -2 -1 -1 -1 -0 0 0 0 1 1 2 4 6 6 6 5
-5 -5 -5 -4 -4 -4 -4 -4 -4 -4 -4 -4 -4 -4 -4 -4 -4 -4 -4 -4 -4 -4 -4 -4 -4 -4 -4 -4 -4 -4 -4 -4 -3 -3 -4 -4 -4 -4 -3 -3 -3 -3 -2 -2 -2 -2 -2 -2 -2 -1 -1 -1 -1 -1 -1 -1 -2 -2 -2 -2 -2 -2 -2 -3 -3 -3 -3 -2 -2 -2 -1 -1 -1 -0 -0 -0 -0 0 0 1 2 4 6 7 6 5
-5 -5 -4 -4 -4 -4 -4 -4 -4 -4 -4 -4 -5 -5 -5 -5 -5 -5 -5 -5 -5 -5 -5 -5 -4 -4 -4 -4 -4 -4 -4 -4 -4 -4 -4 -4 -4 -4 -4 -3 -3 -3 -2 -2 -2 -2 -2 -2 -2 -2 -2 -2 -2 -2 -2 -2 -2 -2 -2 -2 -3 -3 -3 -3 -3 -3 -2 -2 -2 -1 -1 -1 -1 -1 -0 -0 -0 0 0 1 2 3 5 6 6 6
-5 -5 -4 -4 -4 -4 -4 -5 -5 -5 -5 -5 -5 -5 -5 -5 -5 -5 -5 -5 -5 -5 -5 -5 -4 -4 -4 -4 -4 -4 -4 -4 -4 -4 -4 -4 -4 -4 -4 -3 -3 -2 -2 -3 -3 -3 -3 -3 -2 -2 -2 -2 -2 -2 -2 -2 -2 -3 -3 -3 -3 -3 -3 -3 -3 -2 -2 -2 -1 -1 -1 -1 -1 -1 -1 -0 -0 -0 0 1 1 2 3 5 6 6
-5 -5 -5 -4 -4 -5 -5 -5 -5 -5 -5 -5 -5 -5 -5 -5 -5 -5 -5 -5 -5 -5 -4 -4 -4 -4 -4 -4 -4 -4 -4 -4 -4 -4 -4 -4 -4 -4 -3 -3 -3 -3 -3 -3 -3 -3 -3 -3 -3 -3 -3 -3 -3 -3 -3 -3 -3 -3 -3 -3 -3 -3 -3 -3 -3 -2 -2 -2 -1 -1 -1 -1 -1 -1 -1 -1 -0 -0 0 0 1 2 2 3 4 5
-5 -5 -5 -5 -5 -5 -5 -5 -5 -5 -5 -5 -5 -5 -5 -5 -5 -5 -5 -5 -5 -5 -4 -4 -4 -4 -4 -4 -4 -4 -4 -4 -4 -4 -4 -4 -4 -3 -3 -3 -3 -3 -3 -3 -3 -3 -3 -3 -3 -3 -3 -3 -3 -3 -3 -3 -3 -3 -3 -3 -3 -3 -3 -3 -3 -2 -2 -1 -1 -1 -1 -1 -1 -1 -1 -1 -0 -0 0 0 1 1 1 2 2 3
-5 -5 -5 -5 -5 -5 -5 -5 -5 -5 -5 -5 -5 -5 -5 -5 -5 -5 -5 -5 -5 -4 -4 -4 -4 -4 -4 -4 -4 -4 -4 -4 -4 -4 -3 -3 -3 -3 -4 -4 -4 -3 -3 -3 -3 -3 -4 -4 -4 -4 -4 -4 -4 -4 -4 -4 -4 -3 -3 -3 -3 -3 -3 -3 -2 -2 -2 -1 -1 -1 -1 -1 -1 -1 -1 -1 -0 -0 0 0 1 1 1 2 2 2
-5 -5 -5 -5 -5 -5 -5 -5 -5 -5 -5 -5 -5 -5 -5 -5 -5 -5 -5 -5 -5 -4 -4 -4 -4 -4 -4 -4 -4 -4 -4 -3 -3 -3 -3 -3 -3 -3 -4 -3 -3 -3 -3 -4 -4 -4 -4 -4 -4 -4 -4 -4 -4 -4 -4 -4 -4 -4 -4 -4 -3 -3 -3 -2 -2 -2 -2 -2 -1 -1 -1 -1 -1 -1 -1 -1 -0 -0 0 1 1 1 1 2 2 2
-5 -5 -5 -5 -5 -5 -5 -5 -5 -5 -5 -5 -5 -5 -5 -5 -5 -5 -5 -5 -5 -5 -5 -4 -4 -4 -4 -4 -4 -4 -3 -3 -3 -3 -3 -3 -3 -3 -4 -4 -4 -4 -4 -5 -4 -4 -4 -4 -4 -4 -4 -4 -4 -4 -4 -4 -4 -4 -4 -4 -4 -3 -3 -2 -2 -2 -2 -2 -1 -1 -1 -1 -1 -1 -1 -1 -0 0 0 1 1 1 1 1 2 2
-5 -5 -5 -5 -5 -5 -5 -5 -5 -5 -5 -5 -5 -5 -5 -5 -5 -5 -5 -5 -5 -5 -5 -5 -5 -4 -4 -4 -4 -3 -3 -3 -3 -3 -3 -3 -3 -3 -4 -4 -4 -4 -5 -5 -5 -5 -5 -4 -4 -4 -4 -4 -4 -4 -4 -4 -4 -4 -4 -3 -3 -3 -2 -2 -2 -2 -2 -2 -1 -1 -1 -1 -1 -1 -1 -0 -0 0 0 1 1 1 1 1 2 2
-5 -5 -5 -5 -5 -5 -5 -5 -5 -5 -5 -5 -5 -5 -5 -5 -5 -5 -5 -5 -5 -5 -5 -5 -5 -4 -4 -3 -3 -3 -3 -3 -3 -3 -3 -3 -3 -4 -4 -4 -5 -5 -5 -5 -5 -5 -5 -5 -5 -4 -4 -4 -4 -4 -4 -4 -4 -4 -3 -3 -3 -2 -2 -2 -2 -2 -2 -2 -1 -1 -1 -1 -1 -1 -0 -0 -0 -0 0 0 1 1 1 1 2 2
-5 -5 -5 -5 -5 -6 -5 -5 -5 -5 -5 -5 -5 -5 -5 -5 -5 -5 -5 -5 -5 -5 -5 -5 -5 -4 -4 -3 -3 -3 -3 -3 -3 -3 -3 -3 -4 -4 -4 -5 -5 -5 -6 -6 -6 -6 -6 -5 -5 -5 -5 -4 -4 -4 -4 -4 -4 -4 -3 -3 -3 -3 -3 -3 -2 -2 -2 -2 -1 -1 -1 -1 -1 -0 -0 -0 -0 -0 -0 0 0 1 1 1 1 2
-6 -6 -6 -6 -6 -6 -6 -6 -6 -6 -5 -5 -5 -5 -5 -5 -5 -5 -5 -5 -5 -5 -5 -5 -4 -4 -4 -4 -3 -4 -4 -3 -3 -3 -3 -4 -4 -4 -5 -5 -5 -6 -6 -6 -6 -6 -6 -6 -5 -5 -5 -4 -4 -4 -4 -4 -4 -4 -4 -4 -3 -3 -3 -3 -2 -2 -2 -1 -1 -1 -1 -1 -0 -0 0 0 0 0 -0 0 0 1 1 1 1 1
-6 -6 -6 -6 -6 -6 -6 -6 -6 -6 -5 -5 -5 -5 -5 -5 -5 -5 -5 -5 -5 -5 -5 -4 -4 -4 -4 -4 -4 -4 -4 -3 -3 -3 -3 -4 -4 -5 -5 -6 -6 -6 -6 -6 -6 -6 -6 -5 -5 -5 -5 -4 -4 -4 -4 -4 -4 -4 -4 -4 -4 -3 -3 -3 -2 -2 -1 -1 -1 -1 -1 -1 -1 -0 0 0 0 0 0 0 0 1 1 1 1 1
-6 -6 -6 -6 -6 -6 -6 -6 -6 -6 -6 -5 -5 -5 -5 -5 -5 -5 -5 -5 -5 -5 -5 -4 -4 -4 -4 -4 -4 -4 -4 -4 -4 -4 -4 -4 -5 -5 -6 -6 -6 -6 -6 -6 -6 -5 -5 -5 -5 -5 -5 -4 -4 -4 -4 -5 -5 -4 -4 -4 -4 -4 -3 -3 -2 -2 -2 -2 -2 -1 -1 -1 -1 -0 0 0 0 0 0 0 0 0 1 1 1 1
-6 -6 -6 -6 -6 -6 -6 -6 -6 -6 -6 -6 -5 -5 -5 -5 -5 -5 -5 -5 -5 -5 -5 -4 -4 -4 -4 -4 -4 -4 -4 -4 -4 -4 -4 -4 -5 -6 -6 -6 -6 -6 -6 -6 -6 -5 -5 -5 -4 -5 -4 -5 -5 -5 -5 -5 -5 -4 -4 -4 -4 -4 -3 -3 -2 -2 -2 -2 -2 -1 -1 -1 -1 -0 0 1 1 0 0 0 0 0 1 1 1 1
-6 -6 -6 -6 -6 -6 -6 -6 -6 -6 -6 -6 -6 -5 -5 -5 -5 -5 -5 -5 -5 -5 -4 -4 -4 -4 -4 -4 -4 -4 -4 -4 -4 -4 -4 -5 -5 -6 -6 -7 -7 -6 -6 -6 -6 -5 -5 -5 -5 -5 -5 -5 -5 -5 -5 -4 -4 -4 -4 -4 -4 -4 -3 -3 -3 -2 -2 -2 -2 -2 -1 -1 -1 -0 0 0 1 1 0 0 -0 -0 0 1 1 1
Height
690 688 686 686 684 681 678 677 676 674 670 668 667 665 663 661 659 658 656 655 653 651 649 647 646 644 642 641 640 639 637 636 634 633 631 630 628 626 624 622 620 618 616 614 613 611 609 608 606 605 603 602 601 600 598 597 596 594 593 592 591 589 588 587 586 584 583 582 581 581 581 580 580 580 579 579 578 578 577 577 576 576 576 576 576 576
689 687 685 684 682 680 676 675 675 673 670 667 665 663 661 659 657 655 653 652 650 649 647 645 643 641 640 638 637 636 635 634 632 631 629 627 625 623 621 619 617 615 613 611 610 608 606 605 604 602 601 600 599 597 596 595 593 592 591 589 588 587 586 585 583 582 581 580 579 578 578 577 577 576 576 576 576 575 575 574 574 574 574 574 574 574
688 685 682 681 680 678 674 672 671 671 669 666 663 661 660 657 655 652 650 648 647 646 645 643 641 639 637 636 635 634 633 631 630 628 626 624 622 620 618 616 614 612 611 609 607 606 604 602 601 600 598 597 596 595 594 592 591 590 588 587 586 585 583 582 581 580 578 577 576 576 575 575 574 574 573 573 573 572 572 571 571 571 571 571 571 571
687 683 680 679 677 676 674 671 669 668 667 664 661 659 657 655 652 649 647 646 645 643 642 641 639 637 636 634 632 631 630 629 627 625 623 621 619 617 615 613 611 609 608 606 605 603 601 600 598 597 596 595 594 592 591 590 589 587 586 584 583 582 581 579 578 577 576 575 573 572 572 571 571 571 571 570 570 570 569 569 569 569 569 569 569 569
685 682 678 677 675 673 671 670 669 666 664 662 659 656 654 652 649 647 645 644 643 642 640 639 637 636 634 632 630 629 627 626 624 622 621 619 617 615 613 611 609 607 606 604 603 601 599 597 596 595 593 592 591 590 589 588 586 585 583 581 580 579 578 577 576 574 573 572 571 569 569 568 568 568 568 567 567 567 567 567 566 566 566 566 566 566
681 680 677 676 674 672 670 668 667 665 662 659 656 653 651 649 647 645 644 643 641 640 639 637 635 634 632 630 628 626 625 623 621 620 618 617 615 613 611 609 607 605 603 602 600 598 596 595 594 592 591 590 589 588 586 585 584 583 581 580 578 577 576 574 573 572 571 569 568 567 566 566 565 565 565 565 565 564 564 564 564 564 564 564 564 564
678 677 676 674 672 670 668 666 665 663 660 656 653 650 648 647 646 644 643 641 640 638 636 634 632 631 629 627 626 624 622 621 619 618 616 615 613 611 609 607 605 603 601 599 597 596 594 593 591 590 589 587 586 585 584 583 581 580 579 578 576 575 574 572 571 569 568 567 566 565 564 563 563 563 562 562 562 562 561 561 561 561 561 562 561 561
675 674 674 673 670 667 665 664 662 661 658 655 652 649 647 645 644 643 641 640 638 636 634 631 629 628 626 625 623 621 620 618 617 615 614 612 610 608 607 605 603 601 599 597 596 594 592 590 589 587 586 585 584 582 581 580 578 577 576 575 574 573 571 570 568 566 565 564 563 563 562 561 561 560 560 559 559 559 559 558 559 559 559 559 559 559
675 672 671 671 669 666 662 660 659 658 656 654 651 649 646 644 643 641 639 637 636 634 632 629 626 624 623 622 621 619 618 616 615 613 611 609 608 606 605 603 601 599 597 595 593 591 590 588 586 585 584 582 581 579 578 576 576 575 573 572 571 570 569 568 566 565 563 562 561 561 560 560 559 558 557 557 556 556 556 556 556 556 556 556 556 556
674 672 670 667 666 665 662 657 655 655 655 653 651 649 648 645 642 639 636 634 632 631 630 628 625 622 620 619 618 617 616 614 612 611 609 607 606 604 603 601 599 597 595 593 591 589 587 586 584 582 581 579 578 576 575 574 573 572 571 571 570 568 567 566 564 563 562 561 560 559 558 558 557 556 555 554 554 553 553 553 553 553 553 553 553 553
672 670 668 665 663 661 660 657 655 654 654 652 650 648 647 645 642 638 634 631 629 628 627 626 624 621 618 616 615 614 613 611 610 608 607 606 604 603 601 599 597 595 593 591 589 587 585 583 581 580 578 576 575 574 572 571 571 570 569 568 567 566 565 564 562 561 560 559 558 557 556 555 554 553 553 552 551 551 551 551 550 550 550 550 551 550
670 668 665 663 661 659 658 657 655 654 653 651 649 646 643 642 641 639 635 631 628 626 624 622 621 619 617 615 613 612 611 610 608 606 604 603 601 600 599 597 595 592 590 588 586 585 583 581 579 577 576 574 572 571 570 569 569 568 567 566 565 564 563 561 560 559 558 557 556 555 554 553 552 551 550 550 549 549 548 548 547 547 547 547 547 547
668 666 664 661 660 659 657 656 654 653 651 650 648 645 641 640 640 639 636 631 628 625 622 620 617 615 615 614 612 611 610 608 606 604 602 601 599 598 597 595 592 590 588 586 584 582 580 578 576 575 573 571 570 568 568 567 566 566 565 564 563 562 561 559 558 556 556 555 554 553 552 551 550 548 547 547 546 546 545 545 545 544 544 544 544 544
666 664 662 661 659 658 656 655 653 651 650 649 647 645 642 641 639 637 634 630 626 623 621 618 615 613 612 611 611 610 609 606 604 602 600 598 597 597 596 593 591 588 586 584 581 579 577 576 574 572 570 569 567 566 566 565 564 564 563 562 561 560 558 557 556 554 553 552 551 551 550 549 547 546 546 545 544 543 543 542 542 541 541 541 541 541
664 663 661 659 657 656 654 653 652 650 649 648 647 645 642 640 638 636 632 628 624 621 618 616 613 611 610 610 609 609 607 605 603 600 597 596 595 595 595 592 589 586 584 582 580 577 575 574 572 570 568 567 566 565 564 563 562 561 560 560 558 557 556 555 554 552 551 550 549 548 547 546 546 544 543 543 542 541 541 540 540 539 539 539 539 539
663 661 659 657 655 654 653 653 652 650 648 647 646 644 642 639 636 633 630 626 622 619 616 614 611 609 606 606 607 608 606 604 602 599 596 593 592 592 593 591 587 584 581 580 577 575 572 571 570 568 566 565 564 563 562 561 560 559 558 557 556 555 554 553 552 551 549 548 547 546 545 544 543 542 541 541 540 539 539 538 537 537 536 536 536 536
662 661 659 657 655 654 653 652 651 650 648 646 644 642 640 637 634 631 628 624 621 618 616 614 611 608 604 601 602 605 606 604 601 598 595 592 590 590 591 589 586 581 578 576 575 572 570 569 567 566 565 563 562 561 561 560 559 558 556 555 554 553 551 550 549 549 547 546 545 543 542 541 541 540 539 539 538 537 536 536 535 535 534 534 533 533
663 661 660 658 656 654 652 651 650 649 647 645 642 640 637 635 632 630 626 623 620 618 616 614 611 609 605 601 599 601 604 604 601 597 594 590 587 586 587 586 583 579 576 574 571 570 568 567 565 564 563 562 561 560 559 558 557 556 555 553 552 551 549 548 547 546 545 544 542 541 540 539 538 537 537 536 536 535 534 533 532 532 531 531 531 531
663 661 660 658 656 653 652 651 649 647 646 643 641 638 635 632 630 627 624 622 620 618 616 613 611 608 606 602 599 599 602 603 601 596 592 588 584 583 583 582 579 576 573 571 569 567 566 564 563 562 561 561 560 559 558 556 555 554 552 551 550 549 547 546 545 544 543 542 541 539 538 537 536 535 534 534 533 532 531 530 529 529 529 528 528 528
661 660 659 657 655 652 650 648 647 646 644 642 640 637 634 630 627 625 622 621 619 617 616 613 610 607 605 601 599 599 601 601 599 595 590 585 581 580 579 578 576 573 570 568 566 565 564 562 561 560 560 559 558 557 556 554 553 551 551 549 548 547 546 544 543 542 541 540 538 537 536 535 534 532 531 531 530 529 528 527 527 526 526 526 526 526
660 657 656 656 655 651 648 646 645 644 642 641 638 636 631 628 625 623 621 620 618 616 614 611 608 606 604 601 599 598 599 600 598 593 588 582 578 576 576 575 573 571 567 565 564 563 562 561 560 559 558 557 556 555 553 552 551 550 548 547 546 545 543 542 541 539 538 537 536 535 534 532 531 530 529 528 527 526 525 525 524 523 523 523 523 523
659 655 654 654 653 650 647 644 642 641 640 639 636 633 629 626 623 621 620 619 616 614 611 609 607 605 603 601 598 597 598 598 596 592 586 580 574 572 573 573 571 568 565 563 562 561 561 560 559 557 556 555 554 552 551 550 549 547 546 546 544 543 541 539 538 536 535 534 533 532 531 529 528 527 526 525 524 523 522 522 521 521 520 520 520 520
657 654 652 651 649 647 645 642 640 639 638 636 634 631 628 626 624 621 619 617 615 612 610 607 605 603 601 600 597 596 595 594 592 589 584 578 572 570 571 571 569 566 563 562 561 560 559 558 556 555 554 553 551 550 549 547 546 546 545 544 542 541 539 537 535 534 533 531 530 529 528 527 526 525 523 522 521 521 520 519 519 518 518 517 517 517
655 652 650 648 646 645 643 641 639 637 636 634 632 629 627 626 624 621 619 617 614 611 609 606 603 601 598 597 595 593 592 591 589 586 583 577 572 569 569 569 567 564 561 561 560 559 557 556 554 553 552 550 549 547 546 546 545 544 543 542 540 538 536 535 533 532 531 529 528 527 526 525 523 522 521 520 519 518 518 517 517 516 516 516 515 515
652 650 648 646 644 643 641 639 637 636 634 633 631 628 626 624 622 620 618 616 613 611 608 605 601 598 596 595 593 591 589 588 587 585 582 577 572 568 568 567 566 563 560 559 558 557 556 553 551 550 549 547 546 545 544 544 543 542 541 539 538 536 534 533 531 530 529 527 526 525 524 522 521 520 519 518 517 516 515 515 514 514 513 513 513 513
650 648 646 645 643 641 640 638 636 635 634 632 630 627 625 622 620 618 616 614 612 610 607 603 600 596 594 593 590 588 586 586 585 584 581 577 572 567 566 566 566 563 560 557 556 556 554 551 548 547 546 544 543 543 542 542 541 540 538 537 536 534 532 531 529 528 527 525 524 523 521 520 519 518 516 516 514 514 513 512 512 511 511 511 510 510
648 647 645 643 642 640 638 636 635 633 632 631 629 627 625 622 619 616 614 612 611 609 606 602 598 594 592 590 588 586 585 584 583 582 581 577 572 568 566 566 565 563 559 556 554 553 552 549 546 544 543 542 541 541 540 540 539 537 536 535 533 532 530 529 527 526 525 523 522 521 519 518 516 515 514 513 512 511 510 509 509 508 508 508 507 507
647 646 644 642 641 638 636 635 633 631 630 629 627 626 624 622 619 616 613 611 610 608 605 601 597 593 590 587 586 585 584 583 582 581 580 577 573 568 566 565 564 562 559 555 551 550 549 546 544 542 541 540 540 539 538 537 536 535 534 532 531 530 528 527 525 524 522 521 520 518 517 515 514 512 511 510 509 507 507 506 506 505 505 505 504 503
646 644 642 640 638 636 635 633 631 630 628 627 625 624 623 621 618 615 612 610 609 606 603 600 597 593 590 586 584 583 583 582 581 580 578 576 572 568 566 565 563 561 558 554 549 546 545 543 541 540 539 538 538 537 536 535 534 532 531 529 528 527 526 524 523 521 520 519 517 516 514 512 511 509 507 506 505 504 503 502 502 502 502 502 501 500
643 641 639 638 636 634 633 631 629 628 626 625 623 622 621 619 617 614 611 610 607 605 601 598 595 593 590 587 584 581 580 580 580 579 578 575 571 567 565 564 562 560 558 554 548 542 539 539 539 539 538 537 536 535 534 532 531 530 528 526 525 524 523 522 521 519 518 516 515 513 511 509 507 505 504 502 501 500 498 498 498 498 498 497 497 496
641 639 637 635 634 632 631 629 627 626 624 623 621 620 618 617 615 612 610 608 606 604 601 597 595 593 591 588 585 581 578 577 578 578 577 574 570 566 564 562 560 558 558 556 551 543 537 535 535 536 536 536 534 533 531 530 529 527 526 524 523 521 521 520 518 517 515 513 512 510 507 506 503 502 500 498 496 495 494 493 493 493 493 492 492 491
640 638 636 634 632 630 629 627 625 624 622 620 619 617 616 614 613 611 609 607 605 603 600 597 595 592 591 589 586 582 578 576 576 576 576 573 568 565 563 561 559 556 555 555 552 547 541 535 533 534 534 534 532 531 529 528 526 525 524 522 521 519 518 517 516 515 513 511 508 506 504 502 500 498 496 494 492 490 489 488 488 488 487 487 486 485
638 636 634 632 630 628 627 625 623 622 620 618 617 615 614 612 611 609 607 606 604 602 600 597 594 591 589 587 585 582 579 576 575 575 574 571 568 564 561 560 557 555 553 551 550 547 543 538 535 532 531 531 530 528 527 526 524 523 522 521 519 517 516 516 514 512 510 508 505 502 500 498 496 494 492 490 488 486 484 483 482 481 480 479 479 479
637 635 632 630 628 626 625 623 621 620 618 616 615 613 612 610 609 607 606 604 602 601 599 596 594 591 588 585 582 579 577 575 574 573 572 570 567 563 560 558 556 553 551 548 546 544 542 539 536 533 530 527 526 526 525 524 523 522 521 520 518 516 515 513 512 510 507 505 502 499 497 494 492 490 488 486 484 482 480 478 475 472 471 470 471 472
635 633 631 628 626 625 623 621 620 618 616 615 613 611 610 608 607 605 603 602 600 599 597 595 593 590 587 584 581 577 575 573 572 571 570 569 566 562 559 556 554 552 550 546 544 542 541 538 536 533 530 526 524 523 523 523 522 521 520 518 517 515 513 512 510 507 505 502 499 497 494 492 489 487 485 483 481 479 477 473 469 465 462 462 464 466
634 631 629 627 625 623 621 620 618 616 615 613 611 610 608 606 605 603 601 600 598 596 594 592 591 588 586 584 581 577 574 571 570 569 568 566 564 561 557 555 553 551 548 545 543 542 540 537 534 532 529 526 523 522 521 521 521 520 518 517 515 513 512 510 508 506 503 500 497 494 492 490 487 485 483 481 479 477 474 471 466 462 458 458 459 462
632 630 627 626 624 622 620 618 616 615 613 611 609 608 606 604 603 601 599 597 595 593 591 589 587 586 584 581 579 576 573 570 568 566 565 564 562 560 556 553 551 550 548 545 543 541 540 536 533 530 528 526 525 523 521 520 519 518 517 515 514 512 510 507 506 504 502 499 496 493 491 488 486 484 482 479 477 474 471 468 464 460 458 457 458 460
631 628 626 624 623 621 619 617 615 614 612 610 608 606 604 602 601 598 596 595 593 591 589 587 584 582 581 579 576 574 571 569 566 564 562 561 560 557 555 552 549 548 547 545 543 541 538 536 533 530 528 526 526 525 523 521 519 517 516 514 512 510 508 506 504 502 500 497 495 492 490 488 486 483 481 478 476 473 470 467 463 461 458 458 459 460
630 627 625 623 621 620 618 616 614 612 610 609 606 605 602 600 598 596 595 592 591 588 586 584 582 580 577 575 573 571 569 566 564 562 560 559 557 556 553 551 548 546 545 543 541 539 537 536 534 532 530 527 526 524 523 522 521 518 515 513 510 508 507 505 503 501 499 497 495 492 489 487 485 483 481 478 476 473 471 467 464 462 460 459 459 460
628 626 624 622 621 619 617 615 613 611 609 607 605 603 601 599 596 594 592 590 588 586 584 582 580 577 575 572 570 568 566 564 562 560 558 557 555 553 552 550 547 545 543 541 540 538 537 536 535 533 531 530 527 526 524 522 521 519 516 513 510 507 505 503 502 500 498 497 494 492 489 487 485 483 481 478 476 474 472 469 466 464 462 461 460 459
627 625 623 621 619 617 616 614 612 610 608 606 603 601 599 597 595 592 590 588 586 584 582 580 577 575 572 570 568 566 564 562 560 558 556 555 553 551 550 548 546 544 542 540 539 538 537 536 534 533 531 530 528 526 524 523 521 520 518 515 512 508 505 503 501 500 498 496 494 492 490 487 485 483 481 479 477 475 472 470 468 466 463 462 461 460
626 624 622 620 618 616 614 612 610 608 606 605 602 600 598 596 594 591 589 586 584 582 580 577 575 572 569 566 565 563 561 560 558 556 555 553 551 550 548 547 546 544 542 541 539 538 536 536 534 532 531 530 528 526 524 522 521 519 518 516 512 509 505 502 501 499 498 496 494 492 490 488 486 484 482 480 478 476 473 471 469 467 465 464 462 462
626 623 621 619 617 615 613 611 609 607 605 603 601 599 597 595 593 591 588 586 583 580 578 576 573 571 568 565 562 560 559 558 556 555 553 551 550 548 547 546 545 544 543 541 539 537 535 534 533 531 531 530 529 527 525 522 520 518 517 515 513 510 507 502 500 499 498 496 494 492 490 489 487 485 483 481 478 476 474 472 470 468 467 465 464 463
625 622 620 618 616 614 611 610 608 606 604 601 599 597 595 593 591 590 587 585 582 579 577 574 572 569 566 564 561 559 557 556 554 553 551 550 549 548 546 546 544 543 542 540 538 536 534 533 531 531 530 529 528 527 525 522 520 518 516 514 512 511 508 505 502 500 498 496 494 492 491 489 487 485 483 481 479 477 475 473 471 469 468 467 465 464
624 621 619 617 615 612 611 608 606 604 602 600 598 596 594 592 590 588 586 583 581 578 576 573 571 568 565 562 560 558 556 554 552 551 550 549 548 547 546 545 543 541 540 539 537 536 534 532 531 530 529 529 528 526 524 522 520 517 515 513 512 510 508 506 503 501 499 497 495 493 492 490 488 486 484 482 480 478 476 475 473 472 470 469 467 466
623 620 618 616 614 611 610 607 605 603 601 599 596 594 592 590 588 587 585 582 580 577 574 572 570 567 564 561 559 557 555 553 551 549 548 548 547 546 545 543 542 541 539 537 536 534 533 532 531 530 529 528 526 525 524 522 520 517 515 513 512 510 507 505 503 502 500 498 496 494 492 490 488 487 485 483 482 480 478 477 476 474 473 472 470 469
622 619 617 615 613 611 608 606 604 602 600 597 595 593 591 589 587 585 583 581 578 576 573 571 568 566 564 561 559 557 555 552 550 549 548 547 546 544 543 542 541 539 537 536 534 533 531 531 530 530 529 527 526 524 523 521 520 518 516 514 512 510 508 505 503 502 500 499 497 495 493 491 489 488 486 485 483 482 481 480 478 477 476 475 473 472
621 618 616 614 611 609 607 605 603 601 599 596 594 591 590 588 586 584 581 579 577 575 572 569 567 565 562 561 559 557 556 553 551 549 548 546 545 544 542 541 539 537 536 534 532 531 530 529 529 529 528 527 526 524 523 521 520 518 516 514 512 510 508 506 504 502 501 499 498 496 494 492 491 490 488 486 485 484 483 482 481 480 479 478 477 476
620 618 616 613 611 608 606 604 602 600 597 595 592 590 588 586 585 583 580 578 576 573 571 568 566 564 561 560 558 557 555 553 551 550 548 546 545 544 542 541 538 536 534 532 531 529 528 528 528 528 528 528 526 525 523 521 519 517 516 514 512 511 509 507 505 503 502 500 499 497 495 494 493 492 490 488 487 487 487 485 484 483 482 482 482 481
619 617 615 612 610 608 605 603 601 599 596 594 591 589 586 584 582 581 579 577 574 572 570 567 565 563 561 560 558 556 555 553 552 550 548 546 545 544 543 541 539 536 534 532 530 528 528 528 528 529 528 528 527 525 523 521 519 517 516 514 513 511 510 508 506 505 503 502 500 498 497 495 494 493 492 490 490 490 489 489 488 487 487 486 486 485
618 616 614 611 609 607 604 602 600 598 595 593 590 588 586 583 581 579 577 575 573 571 568 566 565 563 561 559 558 556 555 554 552 550 548 547 546 545 544 542 540 538 536 534 531 530 529 529 529 529 528 527 526 525 523 521 519 518 516 515 513 512 511 509 508 507 505 503 502 500 498 497 496 495 494 493 493 493 493 493 492 492 491 490 490 490
Wind_Speed
32 33 33 33 33 34 35 35 35 35 36 35 35 35 36 36 37 37 37 37 36 36 35 34 34 34 34 34 34 34 35 35 36 37 38 40 41 42 42 43 43 43 43 43 43 43 43 43 42 42 41 41 40 40 40 41 42 42 41 40 39 39 39 39 39 38 38 37 36 36 36 36 36 36 35 35 34 34 33 32 31 31 30 29 28 27
32 32 32 31 31 32 33 34 34 34 35 36 36 36 37 38 38 38 38 37 36 35 33 33 33 33 33 33 33 33 34 35 36 37 39 40 41 42 42 42 42 42 42 42 42 42 42 42 41 41 41 40 40 40 41 42 42 42 41 39 38 38 38 39 39 38 38 37 36 36 35 35 35 34 34 34 33 33 32 31 31 31 30 30 30 29
31 31 30 30 29 30 31 33 34 34 35 36 37 38 38 39 39 38 37 35 34 32 31 31 31 32 32 33 32 33 33 35 36 38 39 40 41 42 42 42 42 42 42 41 41 41 41 40 40 40 39 39 39 40 41 42 42 41 40 39 37 37 37 38 37 37 37 36 36 35 34 34 33 33 32 32 32 32 31 31 31 30 30 30 30 30
28 28 29 29 29 30 31 33 34 35 35 36 37 38 39 39 38 37 35 33 31 30 30 30 31 31 31 32 32 32 33 34 36 37 39 40 41 42 43 43 42 42 41 40 40 40 40 40 40 40 39 39 40 41 42 42 41 40 39 39 38 38 38 37 37 36 36 35 34 34 33 33 32 31 31 31 31 31 31 30 30 30 30 30 30 30
28 28 30 29 29 29 31 33 34 35 35 36 36 37 37 37 36 34 31 29 28 28 29 29 30 30 31 31 31 32 33 34 36 37 39 40 42 43 43 43 42 41 40 40 40 40 40 40 40 40 40 41 41 42 42 41 39 39 38 39 39 39 39 38 37 36 35 34 33 32 32 31 31 30 30 30 30 30 30 30 29 29 29 29 30 30
30 30 30 28 27 28 30 32 33 34 35 35 35 36 35 34 32 28 26 25 25 27 28 29 30 30 31 31 32 33 34 35 36 37 39 41 42 42 41 40 39 39 39 39 39 39 39 39 40 40 40 41 41 41 40 38 37 36 36 36 36 37 37 36 35 33 32 31 30 30 30 30 30 30 29 29 29 30 30 30 29 29 29 29 30 30
32 30 27 26 26 28 30 32 34 34 34 34 34 34 33 29 26 23 23 24 25 27 28 29 30 31 31 32 32 33 34 35 36 37 38 39 39 38 37 36 37 37 39 39 39 39 39 39 39 40 40 40 40 40 39 37 35 33 32 32 32 33 33 33 32 30 29 29 29 29 29 29 29 30 30 30 30 30 29 29 28 28 29 29 30 31
30 27 24 24 26 29 32 33 34 34 33 33 31 29 26 23 22 22 24 25 26 27 29 31 32 33 33 33 33 33 33 34 35 35 35 34 34 33 33 34 36 38 39 40 40 40 40 39 39 39 39 40 40 40 39 37 34 32 31 30 31 32 33 32 32 30 29 29 29 29 29 30 30 31 31 31 30 29 28 28 28 28 29 30 30 30
24 22 22 24 26 29 31 33 34 33 32 29 26 23 21 20 22 24 27 28 29 30 31 33 34 35 35 34 33 33 33 34 33 32 31 30 31 32 33 35 37 39 40 40 40 39 39 38 38 38 39 40 40 40 39 37 34 32 30 30 31 33 34 33 33 32 31 30 30 30 31 31 32 32 31 30 29 28 27 27 27 28 29 29 29 30
20 20 23 27 29 30 30 31 32 31 27 24 22 21 21 21 23 26 28 30 32 33 34 35 35 35 35 35 34 33 32 31 30 29 29 30 31 33 35 36 37 38 39 39 38 38 37 37 37 38 39 40 40 39 37 34 32 31 30 31 32 33 34 34 34 34 32 32 31 31 32 32 32 31 31 30 29 28 28 28 28 28 28 28 28 29
18 21 25 29 32 33 31 28 26 24 21 21 22 23 23 24 25 26 26 29 33 36 36 36 35 34 34 33 32 30 28 27 26 27 28 29 31 33 34 35 36 36 36 36 36 35 35 36 37 38 40 40 39 37 35 33 31 31 31 31 32 32 33 34 34 34 33 32 32 32 32 32 31 31 30 29 29 28 29 29 29 28 27 27 27 27
20 24 27 29 30 28 25 20 18 18 20 21 22 24 27 29 29 28 27 27 31 35 35 35 34 33 32 31 29 26 24 24 25 26 28 29 30 31 31 32 33 33 33 33 33 33 34 35 37 39 39 39 37 36 34 33 32 32 31 31 30 31 32 33 34 33 32 32 32 32 32 31 29 28 27 26 26 27 27 28 28 28 27 26 26 27
24 26 27 25 22 18 15 15 17 21 23 24 22 21 24 30 32 32 31 31 32 33 34 33 33 32 31 28 25 22 22 23 25 26 27 28 29 30 29 29 30 31 32 32 33 33 34 35 37 37 37 36 35 34 33 33 32 32 30 30 30 31 32 33 34 34 33 32 31 31 31 30 28 26 25 25 25 25 26 26 26 26 26 26 26 26
25 26 23 17 14 13 16 19 22 23 25 27 27 27 30 32 33 33 31 31 32 33 33 32 30 28 26 23 21 20 22 24 26 27 28 29 30 30 29 29 30 32 33 33 33 34 35 34 34 34 34 33 33 33 33 32 32 30 29 29 29 31 32 33 34 34 33 32 32 31 30 28 27 26 26 26 26 27 27 27 27 26 26 26 26 26
23 19 12 8 10 16 22 25 25 25 27 30 31 32 33 33 32 31 28 28 30 32 30 27 24 22 20 19 20 22 24 25 26 27 29 31 32 31 30 30 31 33 33 33 33 34 34 33 32 31 32 32 33 32 32 30 29 29 28 29 30 32 32 33 33 33 33 32 31 29 28 27 26 27 27 27 27 27 27 28 28 28 27 26 26 26
20 14 7 8 13 20 25 27 26 27 29 31 32 32 31 30 30 29 28 27 27 25 19 14 12 14 19 25 27 26 26 26 26 28 30 32 33 32 30 30 32 33 33 32 32 32 32 31 30 30 31 31 31 30 30 28 28 28 29 31 33 33 34 33 33 32 31 30 29 29 28 28 28 28 28 28 28 28 28 28 29 29 29 27 26 26
17 14 13 12 15 21 26 28 28 29 30 30 31 30 29 28 29 29 28 26 21 16 11 7 7 8 12 24 30 29 26 25 26 28 30 32 33 33 31 30 31 32 32 32 32 32 31 30 30 29 28 27 27 27 27 27 27 29 32 33 34 34 34 34 33 32 31 31 31 31 30 30 30 30 30 30 30 29 29 29 29 29 29 29 28 26
17 18 19 17 18 22 26 28 28 29 29 29 29 29 29 30 30 28 25 20 15 12 11 10 8 8 9 10 21 31 28 27 27 28 29 30 32 33 32 30 30 31 31 31 31 32 31 30 29 28 26 26 25 24 25 27 30 32 33 33 33 33 33 33 33 33 33 34 34 33 33 33 33 32 32 31 31 31 31 30 30 29 29 29 28 27
22 24 23 22 23 25 27 28 28 28 28 28 28 28 30 31 29 25 21 18 17 17 16 12 10 10 10 14 24 32 30 28 27 28 27 28 31 33 32 30 29 29 30 30 31 31 31 30 28 26 25 24 24 25 28 30 32 33 33 32 32 32 32 33 34 34 35 34 34 34 34 34 34 33 33 32 32 32 32 32 30 29 29 28 28 28
27 28 27 26 26 27 28 29 29 29 28 29 30 31 31 30 27 23 20 19 21 23 23 19 16 16 21 25 31 33 30 28 27 27 26 28 31 32 31 28 26 26 27 29 29 29 28 27 24 23 22 23 24 27 30 31 32 32 31 31 31 32 33 35 35 35 35 34 34 34 34 33 33 33 32 31 31 31 31 31 30 30 29 28 28 28
29 29 29 29 28 27 27 29 30 31 30 31 32 32 31 27 23 20 19 21 23 24 24 21 21 24 27 29 31 32 30 28 26 25 24 25 26 27 26 22 21 22 25 26 26 25 22 21 20 21 23 24 26 29 31 31 31 30 29 30 31 33 35 36 36 36 35 34 33 33 32 32 31 30 29 29 29 29 29 29 28 28 28 28 28 28
30 30 32 32 31 30 30 31 32 32 32 32 31 29 26 22 19 18 21 23 24 24 24 23 26 29 30 30 31 32 30 28 27 26 23 16 17 21 21 21 21 22 22 21 19 18 18 20 22 23 24 26 28 30 31 30 29 28 28 30 32 34 36 36 36 35 33 32 32 31 30 28 28 28 28 28 27 26 26 25 25 24 24 25 25 26
32 32 33 33 33 32 32 31 31 30 29 29 29 28 24 23 22 22 25 26 26 27 28 29 31 31 31 30 30 29 28 27 27 26 21 12 12 18 23 24 23 22 20 18 19 21 23 25 25 25 26 28 29 29 29 28 27 27 28 30 33 35 35 35 34 33 32 31 30 28 27 27 28 29 30 30 29 28 27 26 25 25 24 24 24 25
33 33 33 33 32 30 29 28 28 28 28 29 30 29 29 28 28 29 30 30 30 30 30 31 30 29 28 27 26 26 26 25 25 22 16 9 12 21 26 25 22 19 19 20 23 25 26 28 29 29 29 29 28 27 26 25 25 27 29 31 32 33 33 33 32 32 31 30 29 29 29 30 31 31 30 30 29 29 28 27 26 26 26 26 25 25
34 33 33 32 30 29 29 29 30 31 32 32 32 32 33 33 32 32 32 31 30 29 28 26 22 19 22 24 25 25 25 24 23 20 16 11 14 22 26 23 19 18 20 24 26 26 26 28 29 29 28 27 25 24 23 23 24 26 28 30 31 31 31 31 31 31 31 31 31 31 31 32 31 31 31 30 30 29 28 28 28 27 27 28 28 28
34 34 32 31 31 31 32 33 34 35 35 34 33 33 34 33 33 31 30 28 27 26 24 18 12 12 17 20 21 21 22 20 18 17 17 14 15 18 22 20 18 19 23 26 27 27 26 28 29 29 27 24 21 20 21 22 23 25 27 28 29 29 29 30 30 31 31 32 32 31 31 31 31 31 31 30 30 30 30 29 29 29 29 30 30 31
31 30 29 29 30 31 32 33 33 34 34 33 33 33 33 32 30 27 24 24 24 23 18 12 10 11 12 14 15 16 18 17 17 18 19 17 13 11 16 19 21 22 25 27 28 28 27 27 28 27 24 22 20 19 20 21 23 24 26 27 28 28 29 30 31 31 32 31 31 31 31 32 32 32 31 31 31 31 31 31 31 31 31 31 31 31
25 25 26 28 29 31 31 31 31 31 31 31 32 32 31 29 25 21 20 22 24 22 16 12 11 11 9 7 11 17 20 20 20 20 19 17 11 9 18 23 25 25 25 26 28 29 27 26 25 24 21 19 18 18 20 21 23 24 26 27 28 28 29 30 30 30 30 30 30 31 32 32 33 32 32 32 32 32 32 32 32 32 32 31 30 30
25 27 28 29 30 30 30 29 29 29 30 30 30 30 29 27 24 22 23 25 24 21 15 12 11 10 9 9 14 20 21 21 20 20 19 17 13 14 23 25 25 24 23 22 23 25 24 22 20 18 17 16 17 18 20 22 23 24 25 26 26 27 28 28 28 28 28 29 30 32 33 33 33 33 32 32 33 33 33 33 33 33 32 31 30 29
29 30 30 29 28 28 28 28 28 28 28 29 29 29 27 26 25 25 26 26 24 20 16 13 12 11 10 11 13 13 14 18 19 19 20 16 13 16 24 23 22 22 21 16 12 12 15 16 16 14 14 16 19 21 22 23 23 23 24 24 24 25 25 25 26 27 28 29 31 32 33 33 33 33 33 33 33 34 34 34 33 32 31 30 29 29
30 29 29 28 28 27 27 26 26 27 27 27 27 27 26 25 24 24 24 24 23 21 19 17 16 15 13 10 7 6 5 16 21 22 23 19 16 17 22 20 21 22 22 17 9 5 7 8 11 14 15 19 22 24 24 24 23 22 22 22 23 23 23 23 24 26 27 29 31 32 32 32 33 33 33 34 34 34 33 33 32 31 30 29 28 28
29 28 28 28 27 26 26 25 25 25 26 26 25 25 25 24 24 23 23 22 22 21 21 21 20 19 18 12 9 8 8 19 26 27 26 22 21 22 22 20 20 22 24 23 15 7 6 4 8 16 21 23 25 25 25 23 22 21 22 22 22 22 22 22 23 25 28 29 30 31 31 32 32 32 33 33 32 31 31 31 31 31 31 29 29 29
28 28 28 27 26 25 25 25 25 25 25 25 25 24 24 24 23 23 22 22 22 22 23 22 21 20 19 17 15 15 18 24 27 28 27 24 21 21 23 21 21 22 24 25 21 14 9 5 9 17 23 25 24 23 22 21 20 19 20 20 20 21 23 23 24 26 28 29 30 30 31 31 31 31 30 29 28 28 28 29 32 33 33 31 30 30
28 28 28 27 25 24 24 24 25 25 25 25 24 24 23 23 23 23 23 23 23 24 24 23 22 21 19 17 16 18 23 26 28 28 28 26 22 21 23 22 22 22 21 19 17 15 11 10 11 12 15 22 24 22 20 18 17 18 18 19 20 22 23 24 25 26 28 28 29 29 29 30 29 28 26 25 24 25 26 29 31 31 30 30 30 29
28 27 26 25 24 24 24 24 24 24 24 24 24 24 24 24 24 24 24 24 24 25 26 26 25 25 23 19 15 16 22 27 30 30 29 27 25 23 23 21 22 21 17 13 10 8 7 10 13 12 9 13 17 18 17 16 17 18 20 21 22 23 24 25 26 27 28 28 28 28 28 28 27 25 23 23 23 24 26 28 27 23 20 25 29 29
26 25 24 24 23 23 24 24 24 24 24 24 24 24 24 24 25 25 25 26 26 27 27 27 27 28 27 26 23 22 25 29 32 32 31 30 27 25 22 22 23 21 16 12 9 7 6 8 12 14 12 8 9 12 16 18 19 20 22 22 23 24 25 26 27 27 27 27 27 27 27 26 25 24 23 22 23 23 23 23 21 14 8 20 28 30
24 23 23 23 23 23 24 24 25 25 25 25 25 25 25 25 26 27 27 27 28 28 28 28 28 28 29 28 28 29 30 32 34 34 34 33 31 28 25 23 23 22 18 15 12 11 9 9 10 10 9 6 5 8 14 21 23 23 22 22 22 24 25 26 27 26 26 25 25 25 25 24 23 21 21 22 22 21 19 18 16 13 5 10 23 30
23 22 23 23 23 23 24 24 25 25 25 25 25 26 26 27 27 27 27 27 28 28 28 28 28 28 29 30 31 33 34 35 37 38 38 36 34 30 25 23 23 23 22 20 19 16 9 8 8 8 6 6 8 13 18 21 21 21 22 22 22 22 23 25 25 25 24 23 23 23 22 21 21 20 20 20 20 19 18 18 17 15 12 6 10 19
22 22 22 23 24 24 24 24 25 25 26 26 26 27 27 27 27 27 26 26 26 26 27 27 27 28 30 32 33 34 34 35 36 37 36 35 33 30 27 24 24 25 25 24 22 18 10 6 5 6 7 7 10 15 19 19 19 20 22 24 23 23 23 23 23 23 22 22 22 21 22 21 20 19 19 19 18 18 17 18 17 17 15 13 9 8
22 22 23 24 24 24 25 25 26 26 27 27 27 27 27 26 26 26 26 25 25 26 27 27 27 28 29 30 30 31 32 33 33 32 32 32 31 30 28 25 24 24 23 21 18 13 9 8 8 9 8 7 7 9 13 16 18 20 21 18 17 19 22 22 22 22 22 22 21 21 21 20 19 18 18 18 17 16 16 17 17 17 17 15 13 11
23 23 24 25 25 25 25 26 26 27 27 27 27 26 25 25 25 25 26 26 26 26 26 26 26 26 27 27 28 29 29 29 28 28 29 30 30 30 28 26 24 22 20 17 15 14 14 14 14 13 13 11 10 11 12 15 19 21 20 14 14 19 23 23 21 20 20 21 22 21 19 18 18 18 17 17 16 15 16 17 17 17 18 17 15 13
23 23 24 25 26 26 26 27 27 26 26 26 25 25 25 24 24 24 25 25 26 26 26 26 25 25 26 27 27 26 25 25 25 26 28 29 29 28 25 22 19 18 18 18 18 18 18 17 16 14 13 12 10 9 9 15 19 20 19 17 19 21 21 21 19 19 20 21 22 20 18 17 17 16 16 15 15 16 17 18 19 19 18 18 17 16
24 24 25 25 26 27 27 27 26 26 25 25 24 24 25 25 24 24 24 24 25 26 26 25 25 24 23 23 23 23 23 24 25 26 27 26 24 21 18 17 18 19 20 19 18 19 19 18 16 14 14 13 12 9 8 13 17 19 19 19 18 14 8 12 18 21 22 21 20 19 18 17 16 14 13 14 15 18 20 21 22 22 21 20 19 18
24 25 26 26 26 26 26 26 25 25 25 24 24 25 25 25 25 24 24 24 25 25 25 25 24 23 20 19 19 21 22 24 25 25 23 20 17 14 14 17 20 21 20 18 16 16 16 16 15 14 14 13 12 11 10 12 14 16 18 19 17 13 8 10 16 20 20 19 18 17 17 16 14 13 12 15 18 20 23 24 25 25 25 24 23 22
25 25 26 26 26 26 25 25 25 25 24 24 24 24 25 25 25 24 24 24 24 25 24 24 22 19 15 15 17 20 22 23 23 21 18 15 13 14 17 19 20 20 19 18 16 15 14 13 13 14 14 13 13 12 11 11 13 15 16 17 16 14 14 16 17 16 15 16 16 16 16 15 13 11 11 15 18 21 23 24 25 26 26 27 26 25
25 25 25 25 25 25 25 25 25 25 24 24 24 25 25 25 25 24 24 24 23 24 24 24 20 15 10 11 15 18 19 20 19 18 16 15 16 17 19 19 19 19 19 18 18 17 16 14 14 13 13 12 12 12 12 12 12 12 13 14 14 14 15 15 15 14 14 14 15 15 15 14 12 11 11 13 17 20 22 24 24 25 26 27 28 28
25 25 25 25 25 25 25 25 25 24 24 24 24 25 25 25 24 24 24 23 23 22 23 22 19 15 12 13 15 15 15 16 16 17 16 16 17 18 19 20 20 19 18 18 18 17 16 16 15 14 12 9 7 7 10 12 11 11 11 12 13 12 12 12 13 14 14 14 15 15 15 14 12 11 12 14 16 18 21 23 25 26 26 27 28 29
25 25 25 25 25 25 25 25 25 24 24 24 25 25 25 25 24 23 23 23 23 22 21 20 17 15 14 15 16 16 15 15 15 17 17 17 17 17 18 19 20 20 19 18 17 16 14 13 12 12 11 9 5 4 8 11 12 11 11 12 11 11 11 12 13 14 14 14 15 15 15 13 12 11 12 14 15 16 19 22 25 26 27 27 28 29
25 25 25 25 24 24 24 24 24 24 24 24 25 25 26 25 25 23 23 23 23 22 20 18 15 13 12 13 15 16 17 17 17 17 17 16 16 16 18 19 20 20 19 18 17 14 11 7 5 4 6 8 9 8 9 11 12 12 12 11 11 10 10 11 12 14 14 15 15 16 16 15 13 13 13 12 12 13 17 20 23 25 26 27 28 29
24 24 25 24 24 24 24 24 24 24 24 24 24 25 25 25 25 24 23 23 22 21 19 17 15 12 10 11 14 16 16 16 16 16 16 15 14 15 17 18 19 18 17 16 15 12 7 2 0 2 5 9 11 11 11 12 12 12 11 11 11 11 10 10 12 13 14 14 15 17 18 17 16 16 16 13 12 12 16 19 21 23 25 26 28 29
25 24 24 24 24 24 24 24 24 24 23 24 24 24 23 23 23 23 23 22 21 20 19 17 15 13 11 12 14 15 16 15 15 14 15 14 14 15 16 16 17 15 13 10 8 6 3 1 1 2 5 9 11 12 13 12 12 11 9 10 11 11 10 10 11 13 14 15 16 17 18 19 18 17 16 14 11 9 11 14 17 21 24 25 26 27
Wind_Direction
297 298 300 300 300 299 299 299 299 299 299 299 299 299 299 298 297 296 295 294 292 291 290 290 291 292 293 293 293 293 294 294 294 295 296 297 297 297 297 297 297 296 296 296 296 296 296 295 294 294 293 293 294 295 298 299 299 298 297 296 296 296 295 293 290 287 284 281 280 278 277 277 276 275 275 275 275 275 276 276 276 277 277 277 275 272
296 297 297 297 298 298 298 299 299 299 298 298 298 298 297 297 296 295 294 292 290 289 288 289 291 292 293 294 294 294 293 293 294 295 295 296 296 296 296 296 295 294 294 294 294 295 295 295 294 293 293 293 294 296 297 298 298 297 296 295 295 295 295 294 292 289 286 282 279 278 276 275 275 274 274 275 276 276 277 277 276 276 275 275 274 273
296 295 295 295 296 296 298 300 300 299 297 296 296 295 295 294 294 293 292 290 289 288 288 290 293 295 295 295 294 293 292 293 293 294 295 295 296 297 296 296 295 293 293 293 294 295 296 295 295 293 293 293 294 296 297 297 297 296 295 294 294 294 294 294 293 291 288 285 281 278 276 275 274 274 275 275 276 276 276 276 275 274 273 273 273 272
292 292 293 294 295 295 297 299 300 299 296 295 293 293 292 291 291 290 289 288 288 290 291 294 296 297 297 295 293 292 291 291 292 294 295 296 297 298 298 297 296 294 293 294 295 295 295 295 294 293 294 294 296 296 297 297 297 296 296 296 295 294 294 294 294 292 290 287 284 281 278 276 276 275 275 275 275 275 275 274 274 273 273 272 272 271
289 289 291 293 295 297 298 300 300 299 296 294 292 290 290 289 289 288 288 289 291 293 295 297 298 298 297 294 292 291 290 291 292 294 296 298 298 299 298 297 296 295 295 294 294 294 293 293 293 294 294 296 296 296 297 297 298 297 297 297 297 296 296 295 294 293 292 290 289 286 283 280 278 277 275 274 274 273 273 272 273 273 274 273 272 271
288 288 289 291 293 296 300 301 300 298 296 293 291 289 289 289 289 290 291 293 294 295 296 297 298 297 295 293 291 290 291 292 294 296 298 298 299 298 297 297 296 296 295 295 294 293 293 292 293 294 294 295 296 296 297 298 298 297 296 297 297 297 296 295 294 293 293 294 294 293 290 286 282 279 277 274 272 271 270 270 271 272 274 274 273 271
287 286 287 289 292 296 299 300 298 296 294 292 291 290 290 291 291 292 293 294 294 295 296 297 297 296 295 293 291 292 293 294 296 297 298 298 297 297 296 297 297 297 296 296 295 294 294 293 293 294 294 295 296 297 298 298 297 296 295 295 296 296 297 296 296 295 295 296 296 296 295 291 288 283 278 274 271 269 268 268 269 270 271 272 273 272
285 285 286 290 296 299 300 299 296 294 291 291 291 293 295 295 295 295 295 294 294 295 298 299 299 297 295 294 293 293 294 295 295 296 295 295 295 296 296 297 298 298 297 297 296 295 294 293 293 293 295 296 297 297 297 296 294 293 293 293 295 297 299 298 298 298 298 297 297 296 295 292 289 285 281 276 272 269 268 268 268 269 269 270 271 272
281 285 290 294 299 302 301 298 294 292 291 292 295 299 302 301 301 300 300 299 298 299 300 301 299 297 296 294 294 293 293 292 292 292 292 293 294 296 297 297 298 297 297 296 295 294 293 292 292 293 295 297 298 297 295 293 291 292 294 296 298 300 300 300 300 300 299 298 297 295 293 291 288 286 283 280 276 273 271 269 268 268 268 268 270 271
279 288 295 299 301 300 297 295 293 293 294 297 300 302 302 302 302 303 303 302 302 302 301 299 298 297 296 295 294 292 291 290 289 289 291 293 295 296 296 297 296 296 296 295 294 293 292 292 293 294 295 297 297 296 294 292 293 296 299 300 300 300 300 300 300 300 300 299 297 295 293 291 288 286 284 282 280 277 274 270 268 266 265 265 267 269
288 295 300 302 302 299 294 291 292 296 301 305 305 304 302 301 302 304 305 304 303 302 300 298 296 295 294 294 293 291 290 290 290 292 294 295 296 296 296 296 296 296 295 295 294 293 293 292 293 294 295 296 296 295 293 293 296 298 300 299 298 298 298 299 299 299 299 298 298 296 295 293 290 287 284 282 280 277 274 271 268 265 263 263 264 267
298 302 304 303 301 297 294 293 297 305 311 311 309 306 305 304 305 306 305 303 301 300 299 297 294 292 291 291 291 291 291 293 295 297 298 298 298 298 298 297 297 296 296 295 295 293 292 292 292 293 294 294 293 292 291 292 295 297 297 297 296 296 297 298 298 298 298 297 297 296 296 295 293 290 287 284 282 279 277 273 270 267 264 263 264 265
302 304 303 300 296 294 297 304 310 312 312 311 309 308 307 307 306 305 301 298 297 296 296 294 293 291 290 289 288 290 293 296 298 300 300 300 299 300 300 300 298 297 296 296 294 293 292 292 292 293 293 292 291 290 290 292 294 295 295 295 295 296 297 298 298 298 298 297 297 296 296 296 296 296 296 295 294 291 287 283 277 272 267 265 264 264
302 302 298 294 292 298 306 310 311 310 309 308 307 306 305 305 304 302 299 296 294 293 293 292 290 290 289 288 289 292 297 301 302 302 301 300 299 300 301 300 298 296 295 294 292 291 291 291 291 291 291 290 290 290 290 292 293 293 294 294 295 296 297 298 298 299 299 299 297 296 296 296 298 300 302 301 300 299 296 292 287 281 274 268 264 263
298 296 291 288 295 302 306 307 308 307 306 306 305 305 303 302 300 298 296 294 293 292 291 289 289 290 291 293 296 300 303 305 305 304 302 300 299 299 300 298 296 294 292 291 290 289 290 290 289 289 289 288 289 289 290 291 292 294 295 297 298 298 298 299 299 300 299 298 297 296 296 297 299 301 301 300 299 296 294 293 291 287 281 273 267 263
291 289 288 294 301 303 304 305 305 305 305 305 304 302 300 299 297 296 294 292 290 290 290 292 295 298 298 300 301 304 307 308 306 304 301 299 298 298 298 295 293 291 289 289 288 288 289 289 288 287 287 287 287 288 289 291 293 296 299 300 300 300 299 300 300 300 298 297 297 298 299 300 301 302 301 300 298 295 291 289 287 286 283 278 272 265
295 298 303 305 305 305 305 305 304 304 304 302 300 298 296 295 295 294 291 288 287 291 298 305 307 304 302 303 303 305 309 309 307 303 300 297 296 296 295 292 289 287 287 287 287 286 287 287 286 287 286 286 286 288 291 294 297 299 300 301 300 300 301 302 302 301 299 298 299 300 301 301 301 301 300 299 298 295 292 288 284 282 281 279 275 268
309 310 310 308 305 305 305 305 304 303 302 300 298 297 296 295 293 291 286 286 292 303 309 307 303 300 302 302 303 305 309 309 306 301 298 295 294 294 293 289 286 284 284 284 284 285 286 286 286 286 286 287 289 292 295 297 299 300 300 300 300 299 300 302 302 301 300 300 300 300 300 300 300 299 297 296 296 295 293 290 285 281 278 277 275 271
310 308 306 304 303 302 302 302 302 301 300 298 298 298 297 295 292 288 286 292 301 306 306 303 299 296 298 298 301 304 307 307 303 299 295 293 292 293 292 289 285 282 282 283 284 285 285 284 284 284 286 289 292 294 297 298 299 300 299 299 299 299 299 300 300 299 299 298 298 299 298 298 297 296 294 292 292 292 293 291 287 281 276 274 273 272
303 301 300 300 300 300 300 299 299 298 296 296 297 297 296 292 289 287 292 300 304 304 302 300 298 298 298 298 299 302 304 304 300 296 292 290 290 290 289 286 282 280 281 283 283 283 284 284 286 288 289 290 292 294 297 298 298 298 297 297 297 298 299 298 298 297 297 297 297 297 297 296 295 294 292 290 289 289 289 288 285 281 275 271 270 270
298 297 297 297 298 297 297 296 295 294 293 294 295 294 291 288 288 293 300 304 304 303 302 299 298 298 299 298 298 299 301 299 296 291 289 287 286 285 285 284 282 282 282 283 283 284 285 287 290 292 292 292 293 295 296 295 294 294 294 295 297 298 298 297 297 296 296 296 296 296 296 295 295 295 294 292 289 287 285 285 283 280 275 270 267 267
295 295 295 295 294 293 292 291 291 290 291 291 290 289 288 292 297 303 306 307 305 304 302 300 298 298 298 296 295 295 295 291 286 283 284 281 280 282 287 292 292 288 284 285 288 293 295 294 293 293 293 292 292 293 293 291 290 291 293 295 297 297 297 296 296 296 295 296 295 295 296 298 301 302 302 300 296 292 288 287 286 285 281 274 268 265
293 293 293 293 291 289 288 288 288 289 290 289 289 290 293 300 305 307 307 307 305 304 302 300 298 297 295 293 292 291 289 284 278 275 277 277 282 290 297 299 295 288 283 287 295 301 301 298 296 294 293 291 290 289 288 287 289 291 294 296 296 296 295 295 295 295 295 295 295 297 300 304 305 305 304 302 299 296 293 290 288 287 285 281 275 270
292 291 290 290 289 288 288 288 290 293 295 295 296 298 302 304 306 306 306 305 304 303 301 300 298 296 294 292 291 291 289 285 279 274 274 277 289 294 298 297 293 287 288 295 300 302 301 298 296 294 291 288 285 283 283 286 289 292 294 294 294 293 293 293 293 294 295 297 299 301 302 303 303 301 299 296 294 291 289 287 285 283 281 280 277 274
292 291 291 291 292 293 294 296 298 300 301 302 302 304 305 306 306 306 305 304 303 301 300 298 296 294 295 295 294 293 292 290 285 282 281 285 292 294 297 297 297 297 299 302 303 302 299 297 294 292 289 284 281 281 283 286 289 290 290 291 291 291 291 291 293 295 297 298 299 300 300 300 299 297 295 293 290 288 286 284 282 280 278 276 274 272
294 294 295 297 299 301 302 303 304 304 303 303 303 304 305 306 306 305 304 302 301 300 298 295 291 290 294 295 294 293 294 295 294 292 290 291 292 295 298 303 306 305 303 303 302 300 297 294 293 291 287 282 280 281 284 287 288 288 289 290 290 291 291 293 295 296 297 297 297 297 297 297 296 295 293 290 288 286 284 282 280 278 276 274 272 270
300 302 304 305 306 306 306 306 305 304 303 303 303 303 304 305 305 303 300 299 300 299 297 291 288 290 291 292 293 296 300 305 306 303 298 295 292 295 303 309 309 307 304 302 300 298 295 291 289 287 284 282 282 284 286 288 289 289 290 291 291 290 291 293 294 295 295 295 295 295 295 295 294 293 291 288 286 284 282 280 278 276 274 272 270 267
310 311 311 309 308 306 305 305 304 304 303 303 303 303 304 303 302 299 297 298 298 297 294 290 290 291 291 289 296 302 306 308 307 306 306 302 299 299 305 308 307 305 302 300 298 296 293 289 285 282 281 282 285 288 290 292 291 290 290 290 289 289 290 291 292 293 293 294 294 295 295 294 293 291 289 287 285 283 280 278 276 274 271 268 265 262
315 312 309 307 306 306 305 304 304 303 303 302 302 302 302 300 297 295 294 296 295 293 291 288 289 290 293 296 302 304 305 304 305 308 313 309 303 300 303 304 303 301 301 300 299 297 294 289 283 279 280 286 291 294 295 295 293 290 288 287 286 287 289 290 291 292 293 294 295 295 295 294 292 290 288 286 285 283 280 277 274 272 268 264 260 256
314 312 310 308 307 306 305 303 302 302 302 302 302 301 300 297 293 291 291 292 292 290 290 291 293 295 299 303 303 302 300 302 306 312 314 310 301 298 301 301 300 299 301 301 301 298 295 291 286 283 288 297 300 300 298 297 293 289 287 285 285 286 287 289 291 293 295 295 296 296 295 293 292 290 288 287 285 283 280 277 273 269 265 259 255 250
314 313 311 310 308 306 304 303 302 302 302 301 300 299 298 295 291 289 289 290 290 289 291 294 296 298 299 301 300 297 298 304 307 309 308 303 296 295 299 298 298 298 299 299 298 296 298 294 294 297 302 304 304 302 300 297 293 289 287 286 286 287 289 291 293 296 297 297 296 295 294 292 291 290 289 287 285 283 280 277 273 267 262 255 250 245
312 311 310 309 306 305 304 303 303 303 302 301 300 298 297 295 293 291 290 290 289 290 291 293 294 295 294 292 290 291 295 300 302 303 302 298 295 294 297 296 296 297 297 295 292 289 295 299 305 307 308 305 303 301 299 295 291 288 288 289 289 290 293 295 297 299 299 299 297 295 293 292 291 290 289 288 287 284 282 279 275 270 262 253 245 240
309 308 307 305 304 303 303 304 304 304 303 302 301 300 298 297 295 294 293 291 290 290 291 292 292 293 291 289 287 288 291 294 297 299 300 297 295 294 296 295 294 295 296 293 288 283 284 294 308 308 306 303 301 299 297 294 291 289 291 292 293 295 298 300 301 301 300 299 297 295 294 293 292 292 292 291 290 289 287 285 282 276 266 252 240 233
307 305 304 302 302 303 304 305 305 306 305 304 303 302 300 299 298 297 295 293 292 291 291 290 291 291 291 290 289 288 290 292 294 297 298 297 294 293 294 293 294 294 295 292 289 287 289 297 304 305 304 301 300 298 297 296 296 297 299 300 300 300 302 304 303 302 300 298 296 295 295 295 296 297 297 298 297 296 294 294 294 286 269 247 232 224
305 303 302 302 303 305 307 308 308 307 307 306 304 303 302 301 300 298 297 295 293 292 291 289 288 288 288 289 289 290 291 292 294 296 296 295 292 291 292 291 292 293 292 291 292 295 297 300 300 298 295 298 300 301 302 305 307 309 308 307 304 303 303 303 302 301 299 298 296 296 296 298 300 303 305 306 305 302 300 304 306 298 265 234 220 213
303 302 302 303 305 307 309 310 310 309 308 307 306 305 304 303 301 299 298 296 294 293 291 289 287 286 285 285 285 286 288 291 293 294 293 291 289 288 289 289 290 291 291 294 299 302 299 295 293 293 293 295 302 307 311 314 315 313 311 308 306 304 303 302 301 300 298 297 296 297 300 303 306 310 313 315 313 310 309 313 325 327 264 220 211 207
303 302 303 306 307 309 310 311 310 310 309 308 307 306 305 303 302 300 299 296 294 293 292 289 287 285 284 282 282 283 284 287 289 290 289 288 287 286 286 286 286 288 291 296 299 297 292 288 289 292 295 300 307 314 315 316 316 314 311 309 307 305 303 303 302 301 299 297 298 301 306 310 314 319 322 322 322 322 325 333 349 7 21 203 205 205
304 304 306 307 309 310 310 311 310 310 309 309 308 307 305 303 302 300 298 297 294 293 292 291 289 287 287 285 283 282 283 284 285 286 287 287 286 284 283 284 287 290 292 292 291 288 285 286 294 301 306 309 311 312 313 315 315 314 313 311 309 306 304 304 304 303 301 301 305 310 316 320 325 328 329 329 331 334 340 349 3 21 40 83 177 197
305 306 307 309 310 310 310 310 309 309 309 308 307 306 305 303 302 300 299 297 296 295 294 292 291 289 289 288 286 285 285 285 286 287 287 287 286 285 284 286 289 291 290 287 284 282 284 294 306 311 312 312 311 311 312 313 314 314 314 313 312 309 307 307 307 306 306 309 314 319 324 329 334 335 334 334 337 341 346 355 6 19 32 49 80 129
307 307 308 309 310 310 309 309 308 308 308 308 307 306 305 304 304 304 303 301 300 299 297 295 293 291 290 289 288 288 288 288 288 288 288 288 288 287 286 287 287 287 286 285 284 287 299 309 309 307 306 306 307 309 310 311 312 313 314 314 313 312 311 309 308 308 311 317 322 325 328 333 337 339 339 339 342 348 355 2 11 19 27 35 46 64
308 309 309 309 310 309 309 308 308 308 308 308 308 307 307 306 306 306 306 305 305 304 302 300 298 295 293 292 291 290 290 290 290 291 291 292 291 290 288 287 287 288 292 297 302 308 311 308 304 302 301 300 300 302 305 307 309 310 311 309 307 307 308 307 308 311 318 325 328 330 332 336 339 342 343 346 351 0 9 15 18 22 28 35 41 47
309 309 309 309 310 310 309 309 309 309 309 309 308 308 307 308 307 307 307 307 307 306 306 304 302 299 298 297 296 295 296 296 296 297 296 296 295 293 293 295 301 309 315 317 315 311 306 301 297 293 293 295 297 299 302 305 307 308 307 305 305 306 307 308 313 319 325 327 330 333 336 337 339 342 347 353 3 15 24 28 30 30 32 35 40 45
309 309 308 308 309 309 310 310 310 311 311 311 309 308 307 307 307 307 306 305 305 305 305 303 301 299 297 296 298 301 303 304 303 302 300 298 298 299 306 315 322 323 322 317 310 304 301 297 292 288 289 292 295 296 298 303 305 305 304 303 304 305 305 312 317 322 326 328 332 337 340 340 341 345 354 8 20 29 35 36 37 37 37 38 41 45
308 308 309 309 310 310 311 311 311 312 312 310 309 308 308 308 307 306 305 304 304 303 302 302 300 298 295 295 300 306 310 309 308 305 303 302 305 313 323 325 323 319 315 308 303 300 300 298 294 292 294 296 296 296 297 300 302 303 303 303 302 298 293 306 315 321 326 330 336 341 344 345 346 353 9 25 34 38 40 40 40 41 42 44 46 47
309 310 310 311 311 312 312 311 312 312 311 310 308 307 308 308 307 306 306 304 303 302 301 301 300 299 297 299 305 310 313 312 310 309 309 311 316 322 324 324 322 319 314 306 300 297 296 296 297 298 300 300 297 294 294 296 299 302 304 307 308 305 304 309 315 321 327 333 339 344 350 353 356 5 20 32 37 39 40 40 40 41 42 45 47 48
311 312 312 312 312 312 311 311 312 312 311 310 308 308 308 309 308 307 305 303 302 301 301 300 299 298 297 303 309 312 313 312 312 313 316 319 321 323 324 325 324 320 314 307 301 296 291 289 291 295 299 299 296 295 296 300 302 305 308 314 316 316 316 318 323 331 339 343 345 350 357 6 13 22 32 37 38 39 40 41 42 42 44 46 48 49
313 313 312 312 312 312 311 312 312 312 312 311 310 309 309 309 308 307 306 304 302 301 301 301 299 296 297 303 308 311 312 313 315 318 321 322 323 325 327 328 327 324 317 311 304 298 291 287 286 287 290 292 296 304 311 314 312 310 311 315 317 318 317 319 331 347 358 359 357 359 6 14 21 30 40 44 43 41 39 41 43 46 48 49 51 51
313 313 312 312 312 311 312 312 313 312 312 311 310 310 310 310 309 307 306 305 304 302 301 301 299 297 299 304 308 311 313 314 317 320 321 322 325 329 333 333 331 328 324 319 313 307 300 293 287 284 286 293 304 321 324 324 320 315 313 315 318 319 319 324 341 359 9 10 10 12 17 19 24 32 41 47 47 44 40 39 41 46 50 54 55 56
312 312 312 312 311 311 311 312 312 312 310 310 309 310 310 311 310 308 306 305 305 303 300 299 298 298 302 307 310 313 316 318 320 320 321 324 329 335 338 338 336 334 331 330 328 325 318 308 295 298 313 326 331 332 328 326 323 321 320 322 323 323 323 334 352 7 14 16 19 25 29 31 33 40 49 53 51 46 42 38 39 43 49 56 60 61
312 311 311 311 311 310 310 311 311 310 309 308 308 309 309 310 310 309 307 306 304 302 300 297 297 299 305 310 313 316 319 321 321 321 322 327 336 343 344 342 341 339 338 337 338 338 336 331 98 21 10 6 356 344 333 327 327 329 331 333 334 334 334 344 1 13 19 21 27 33 37 38 39 44 52 57 56 51 47 41 37 39 47 56 62 65
313 312 312 311 310 310 309 309 309 308 307 306 307 307 308 308 309 309 309 308 305 303 301 298 299 301 307 311 315 318 321 322 321 320 323 332 343 349 348 345 344 343 341 340 339 342 358 70 73 2 0 6 7 359 345 334 333 335 337 339 343 346 350 359 13 23 29 33 37 40 42 40 39 41 48 56 58 53 49 44 37 35 44 53 61 65